Time,TemperatureF,DewpointF,PressureIn,WindDirection,WindDirectionDegrees,WindSpeedMPH,WindSpeedGustMPH,Humidity,HourlyPrecipIn,Conditions,Clouds,dailyrainin,SoftwareType,DateUTC
2014-10-01 00:03:00,48.5,46.9,29.98,West,272,0.0,0.0,94,0.00,,,0.00,vanprod-2.5,2014-10-01 04:03:00,
2014-10-01 00:08:00,48.4,46.8,29.98,West,272,0.0,0.0,94,0.00,,,0.00,vanprod-2.5,2014-10-01 04:08:00,
2014-10-01 00:13:00,48.3,46.7,29.98,West,272,0.0,0.0,94,0.00,,,0.00,vanprod-2.5,2014-10-01 04:13:00,
2014-10-01 00:18:00,48.1,46.5,29.98,West,272,0.0,0.0,94,0.00,,,0.00,vanprod-2.5,2014-10-01 04:18:00,
2014-10-01 00:23:00,48.0,46.4,29.98,West,272,0.0,0.0,94,0.00,,,0.00,vanprod-2.5,2014-10-01 04:23:00,
2014-10-01 00:28:00,47.6,46.0,29.98,West,272,0.0,0.0,94,0.00,,,0.00,vanprod-2.5,2014-10-01 04:28:00,
2014-10-01 00:33:00,47.6,46.2,29.98,West,272,0.0,0.0,95,0.00,,,0.00,vanprod-2.5,2014-10-01 04:33:00,
2014-10-01 00:38:00,47.7,46.3,29.98,West,272,0.0,0.0,95,0.00,,,0.00,vanprod-2.5,2014-10-01 04:38:00,
2014-10-01 00:43:00,47.7,46.3,29.98,NW,323,0.0,0.0,95,0.00,,,0.00,vanprod-2.5,2014-10-01 04:43:00,
2014-10-01 00:48:00,47.7,46.3,29.98,NW,323,0.0,0.0,95,0.00,,,0.00,vanprod-2.5,2014-10-01 04:48:00,
2014-10-01 00:51:00,47.6,46.2,29.98,NW,323,0.0,0.0,95,0.00,,,0.00,vanprod-2.5,2014-10-01 04:51:00,
2014-10-01 00:56:00,47.6,46.2,29.98,NNW,334,0.0,0.0,95,0.00,,,0.00,vanprod-2.5,2014-10-01 04:56:00,
2014-10-01 01:01:00,47.8,46.7,29.98,NNE,23,0.0,0.0,96,0.00,,,0.00,vanprod-2.5,2014-10-01 05:01:00,
2014-10-01 01:06:00,47.8,46.7,29.98,NNE,32,0.0,0.0,96,0.00,,,0.00,vanprod-2.5,2014-10-01 05:06:00,
2014-10-01 01:11:00,47.6,46.2,29.98,NNE,32,0.0,0.0,95,0.00,,,0.00,vanprod-2.5,2014-10-01 05:11:00,
2014-10-01 01:16:00,47.6,46.5,29.98,NNE,32,0.0,0.0,96,0.00,,,0.00,vanprod-2.5,2014-10-01 05:16:00,
2014-10-01 01:21:00,47.4,46.0,29.98,NNE,32,0.0,0.0,95,0.00,,,0.00,vanprod-2.5,2014-10-01 05:21:00,
2014-10-01 01:26:00,47.4,46.3,29.98,NNE,32,0.0,0.0,96,0.00,,,0.00,vanprod-2.5,2014-10-01 05:26:00,
2014-10-01 01:31:00,47.6,46.5,29.99,NNE,31,0.0,0.0,96,0.00,,,0.00,vanprod-2.5,2014-10-01 05:31:00,
2014-10-01 01:36:00,47.6,46.5,29.99,NNW,333,0.0,0.0,96,0.00,,,0.00,vanprod-2.5,2014-10-01 05:36:00,
2014-10-01 01:41:00,47.7,46.6,29.99,NW,322,0.0,0.0,96,0.00,,,0.00,vanprod-2.5,2014-10-01 05:41:00,
2014-10-01 01:46:00,47.6,46.5,29.99,NW,324,0.0,0.0,96,0.00,,,0.00,vanprod-2.5,2014-10-01 05:46:00,
2014-10-01 01:50:00,47.6,46.5,29.99,NW,323,0.0,0.0,96,0.00,,,0.00,vanprod-2.5,2014-10-01 05:50:00,
2014-10-01 01:55:00,47.7,46.6,29.99,NNW,333,0.0,0.0,96,0.00,,,0.00,vanprod-2.5,2014-10-01 05:55:00,
2014-10-01 02:00:00,47.7,46.6,29.99,NNE,13,0.0,0.0,96,0.00,,,0.00,vanprod-2.5,2014-10-01 06:00:00,
2014-10-01 02:05:00,47.7,46.6,29.99,NNE,13,0.0,0.0,96,0.00,,,0.00,vanprod-2.5,2014-10-01 06:05:00,
2014-10-01 02:10:00,47.7,46.6,29.99,NNE,13,0.0,0.0,96,0.00,,,0.00,vanprod-2.5,2014-10-01 06:10:00,
2014-10-01 02:15:00,47.5,46.4,29.99,NNE,13,0.0,0.0,96,0.00,,,0.00,vanprod-2.5,2014-10-01 06:15:00,
2014-10-01 02:20:00,47.7,46.6,29.99,NNE,13,0.0,0.0,96,0.00,,,0.00,vanprod-2.5,2014-10-01 06:20:00,
2014-10-01 02:25:00,47.9,46.8,29.99,North,354,0.0,0.0,96,0.00,,,0.00,vanprod-2.5,2014-10-01 06:25:00,
2014-10-01 02:30:00,47.8,46.7,29.99,North,354,0.0,0.0,96,0.00,,,0.00,vanprod-2.5,2014-10-01 06:30:00,
2014-10-01 02:35:00,47.7,46.6,29.99,North,354,0.0,0.0,96,0.00,,,0.00,vanprod-2.5,2014-10-01 06:35:00,
2014-10-01 02:40:00,47.6,46.5,29.99,North,354,0.0,0.0,96,0.00,,,0.00,vanprod-2.5,2014-10-01 06:40:00,
2014-10-01 02:42:00,47.6,46.5,29.99,North,354,0.0,0.0,96,0.00,,,0.00,vanprod-2.5,2014-10-01 06:42:00,
2014-10-01 02:47:00,47.6,46.5,29.99,North,351,0.0,1.0,96,0.00,,,0.00,vanprod-2.5,2014-10-01 06:47:00,
2014-10-01 02:52:00,47.7,46.6,29.99,NNW,335,0.0,0.0,96,0.00,,,0.00,vanprod-2.5,2014-10-01 06:52:00,
2014-10-01 02:57:00,47.7,46.6,29.99,NNW,335,0.0,0.0,96,0.00,,,0.00,vanprod-2.5,2014-10-01 06:57:00,
2014-10-01 03:02:00,47.6,46.5,29.98,NNW,335,0.0,0.0,96,0.00,,,0.00,vanprod-2.5,2014-10-01 07:02:00,
2014-10-01 03:07:00,47.4,46.3,29.98,NNW,335,0.0,0.0,96,0.00,,,0.00,vanprod-2.5,2014-10-01 07:07:00,
2014-10-01 03:12:00,47.3,46.2,29.98,NNW,335,0.0,0.0,96,0.00,,,0.00,vanprod-2.5,2014-10-01 07:12:00,
2014-10-01 03:17:00,47.3,46.2,29.98,NNW,338,0.0,0.0,96,0.00,,,0.00,vanprod-2.5,2014-10-01 07:17:00,
2014-10-01 03:22:00,47.3,46.2,29.98,NNW,338,0.0,0.0,96,0.00,,,0.00,vanprod-2.5,2014-10-01 07:22:00,
2014-10-01 03:27:00,47.1,46.0,29.98,NNW,338,0.0,0.0,96,0.00,,,0.00,vanprod-2.5,2014-10-01 07:27:00,
2014-10-01 03:32:00,46.9,45.8,29.98,NNW,338,0.0,0.0,96,0.00,,,0.00,vanprod-2.5,2014-10-01 07:32:00,
2014-10-01 03:37:00,46.8,45.7,29.98,NNW,338,0.0,0.0,96,0.00,,,0.00,vanprod-2.5,2014-10-01 07:37:00,
2014-10-01 03:42:00,46.7,45.6,29.98,NNW,338,0.0,0.0,96,0.00,,,0.00,vanprod-2.5,2014-10-01 07:42:00,
2014-10-01 03:46:00,46.7,45.6,29.98,NNW,338,0.0,0.0,96,0.00,,,0.00,vanprod-2.5,2014-10-01 07:46:00,
2014-10-01 03:51:00,46.6,45.5,29.98,NNW,338,0.0,0.0,96,0.00,,,0.00,vanprod-2.5,2014-10-01 07:51:00,
2014-10-01 03:56:00,46.7,45.9,29.98,NNW,338,0.0,0.0,97,0.00,,,0.00,vanprod-2.5,2014-10-01 07:56:00,
2014-10-01 04:01:00,46.7,45.9,29.98,NNW,337,0.0,0.0,97,0.00,,,0.00,vanprod-2.5,2014-10-01 08:01:00,
2014-10-01 04:06:00,46.7,45.9,29.98,NNW,338,0.0,0.0,97,0.00,,,0.00,vanprod-2.5,2014-10-01 08:06:00,
2014-10-01 04:11:00,46.7,45.9,29.98,NNW,338,0.0,0.0,97,0.00,,,0.00,vanprod-2.5,2014-10-01 08:11:00,
2014-10-01 04:16:00,46.7,45.9,29.98,NNW,338,0.0,0.0,97,0.00,,,0.00,vanprod-2.5,2014-10-01 08:16:00,
2014-10-01 04:21:00,46.5,45.7,29.98,NNW,338,0.0,0.0,97,0.00,,,0.00,vanprod-2.5,2014-10-01 08:21:00,
2014-10-01 04:26:00,46.5,45.7,29.98,NNW,338,0.0,0.0,97,0.00,,,0.00,vanprod-2.5,2014-10-01 08:26:00,
2014-10-01 04:31:00,46.5,45.7,29.98,WNW,285,0.0,0.0,97,0.00,,,0.00,vanprod-2.5,2014-10-01 08:31:00,
2014-10-01 04:36:00,46.6,45.8,29.98,North,11,0.0,0.0,97,0.00,,,0.00,vanprod-2.5,2014-10-01 08:36:00,
2014-10-01 04:40:00,46.7,45.9,29.98,North,356,0.0,0.0,97,0.00,,,0.00,vanprod-2.5,2014-10-01 08:40:00,
2014-10-01 04:46:00,46.7,45.9,29.98,North,356,0.0,0.0,97,0.00,,,0.00,vanprod-2.5,2014-10-01 08:46:00,
2014-10-01 04:50:00,46.6,45.8,29.98,North,356,0.0,0.0,97,0.00,,,0.00,vanprod-2.5,2014-10-01 08:50:00,
2014-10-01 04:56:00,46.6,45.8,29.98,North,350,0.0,1.0,97,0.00,,,0.00,vanprod-2.5,2014-10-01 08:56:00,
2014-10-01 05:01:00,46.7,45.9,29.98,North,3,0.0,0.0,97,0.00,,,0.00,vanprod-2.5,2014-10-01 09:01:00,
2014-10-01 05:06:00,46.7,45.9,29.98,North,349,0.0,0.0,97,0.00,,,0.00,vanprod-2.5,2014-10-01 09:06:00,
2014-10-01 05:11:00,46.7,45.9,29.99,North,359,0.0,0.0,97,0.00,,,0.00,vanprod-2.5,2014-10-01 09:11:00,
2014-10-01 05:16:00,46.6,45.8,29.98,North,359,0.0,0.0,97,0.00,,,0.00,vanprod-2.5,2014-10-01 09:16:00,
2014-10-01 05:21:00,46.5,45.7,29.98,North,359,0.0,0.0,97,0.00,,,0.00,vanprod-2.5,2014-10-01 09:21:00,
2014-10-01 05:26:00,46.6,45.8,29.98,North,349,0.0,0.0,97,0.00,,,0.00,vanprod-2.5,2014-10-01 09:26:00,
2014-10-01 05:31:00,46.5,45.7,29.98,North,351,0.0,0.0,97,0.00,,,0.00,vanprod-2.5,2014-10-01 09:31:00,
2014-10-01 05:36:00,46.6,45.8,29.98,NNE,12,0.0,0.0,97,0.00,,,0.00,vanprod-2.5,2014-10-01 09:36:00,
2014-10-01 05:41:00,46.6,45.8,29.98,NE,40,0.0,0.0,97,0.00,,,0.00,vanprod-2.5,2014-10-01 09:41:00,
2014-10-01 05:45:00,46.5,45.7,29.98,NE,43,0.0,0.0,97,0.00,,,0.00,vanprod-2.5,2014-10-01 09:45:00,
2014-10-01 05:50:00,46.5,45.7,29.98,NNE,17,0.0,0.0,97,0.00,,,0.00,vanprod-2.5,2014-10-01 09:50:00,
2014-10-01 05:55:00,46.4,45.6,29.98,NE,34,0.0,0.0,97,0.00,,,0.00,vanprod-2.5,2014-10-01 09:55:00,
2014-10-01 06:00:00,46.2,45.4,29.98,NE,34,0.0,0.0,97,0.00,,,0.00,vanprod-2.5,2014-10-01 10:00:00,
2014-10-01 06:05:00,46.2,45.4,29.98,NE,34,0.0,0.0,97,0.00,,,0.00,vanprod-2.5,2014-10-01 10:05:00,
2014-10-01 06:10:00,46.1,45.3,29.99,NNE,22,0.0,0.0,97,0.00,,,0.00,vanprod-2.5,2014-10-01 10:10:00,
2014-10-01 06:15:00,46.2,45.4,29.99,NNE,13,0.0,0.0,97,0.00,,,0.00,vanprod-2.5,2014-10-01 10:15:00,
2014-10-01 06:20:00,46.0,45.2,29.99,NNE,13,0.0,0.0,97,0.00,,,0.00,vanprod-2.5,2014-10-01 10:20:00,
2014-10-01 06:25:00,45.9,45.1,29.99,NNE,14,0.0,0.0,97,0.00,,,0.00,vanprod-2.5,2014-10-01 10:25:00,
2014-10-01 06:30:00,45.8,45.0,29.99,NNE,14,0.0,0.0,97,0.00,,,0.00,vanprod-2.5,2014-10-01 10:30:00,
2014-10-01 06:35:00,45.9,45.1,29.99,NNE,12,0.0,0.0,97,0.00,,,0.00,vanprod-2.5,2014-10-01 10:35:00,
2014-10-01 06:40:00,46.0,45.2,29.99,NNE,33,0.0,0.0,97,0.00,,,0.00,vanprod-2.5,2014-10-01 10:40:00,
2014-10-01 06:45:00,46.1,45.3,29.99,NNE,30,0.0,0.0,97,0.00,,,0.00,vanprod-2.5,2014-10-01 10:45:00,
2014-10-01 06:50:00,46.1,45.3,29.99,NNE,32,0.0,0.0,97,0.00,,,0.00,vanprod-2.5,2014-10-01 10:50:00,
2014-10-01 06:55:00,46.3,45.8,29.99,NE,51,0.0,0.0,98,0.00,,,0.00,vanprod-2.5,2014-10-01 10:55:00,
2014-10-01 07:00:00,46.4,45.9,29.99,ENE,59,0.0,0.0,98,0.00,,,0.00,vanprod-2.5,2014-10-01 11:00:00,
2014-10-01 07:05:00,46.2,45.4,29.99,ENE,62,0.0,0.0,97,0.00,,,0.00,vanprod-2.5,2014-10-01 11:05:00,
2014-10-01 07:10:00,46.1,45.3,30.00,ENE,77,0.0,0.0,97,0.00,,,0.00,vanprod-2.5,2014-10-01 11:10:00,
2014-10-01 07:15:00,46.2,45.4,30.00,ENE,77,0.0,0.0,97,0.00,,,0.00,vanprod-2.5,2014-10-01 11:15:00,
2014-10-01 07:20:00,46.2,45.4,30.00,East,82,0.0,0.0,97,0.00,,,0.00,vanprod-2.5,2014-10-01 11:20:00,
2014-10-01 07:25:00,46.3,45.5,30.00,East,88,0.0,0.0,97,0.00,,,0.00,vanprod-2.5,2014-10-01 11:25:00,
2014-10-01 07:30:00,46.4,45.6,30.00,East,89,0.0,0.0,97,0.00,,,0.00,vanprod-2.5,2014-10-01 11:30:00,
2014-10-01 07:35:00,46.5,46.0,30.00,NNE,15,0.0,0.0,98,0.00,,,0.00,vanprod-2.5,2014-10-01 11:35:00,
2014-10-01 07:40:00,46.5,46.0,30.00,ENE,74,1.0,1.0,98,0.00,,,0.00,vanprod-2.5,2014-10-01 11:40:00,
2014-10-01 07:45:00,46.5,46.0,30.00,East,86,0.0,1.0,98,0.00,,,0.00,vanprod-2.5,2014-10-01 11:45:00,
2014-10-01 07:50:00,46.6,46.1,30.01,East,79,0.0,0.0,98,0.00,,,0.00,vanprod-2.5,2014-10-01 11:50:00,
2014-10-01 07:55:00,46.7,46.2,30.01,ENE,78,0.0,1.0,98,0.00,,,0.00,vanprod-2.5,2014-10-01 11:55:00,
2014-10-01 08:00:00,46.8,46.3,30.01,East,88,0.0,0.0,98,0.00,,,0.00,vanprod-2.5,2014-10-01 12:00:00,
2014-10-01 08:05:00,46.9,46.4,30.01,ENE,68,0.0,0.0,98,0.00,,,0.00,vanprod-2.5,2014-10-01 12:05:00,
2014-10-01 08:10:00,46.9,46.4,30.02,NE,41,0.0,0.0,98,0.00,,,0.00,vanprod-2.5,2014-10-01 12:10:00,
2014-10-01 08:15:00,47.0,46.5,30.02,ENE,74,0.0,0.0,98,0.00,,,0.00,vanprod-2.5,2014-10-01 12:15:00,
2014-10-01 08:20:00,47.1,46.6,30.02,ENE,71,1.0,0.0,98,0.00,,,0.00,vanprod-2.5,2014-10-01 12:20:00,
2014-10-01 08:25:00,47.1,46.6,30.02,ENE,78,0.0,0.0,98,0.00,,,0.00,vanprod-2.5,2014-10-01 12:25:00,
2014-10-01 08:30:00,47.3,46.8,30.02,ENE,77,0.0,0.0,98,0.00,,,0.00,vanprod-2.5,2014-10-01 12:30:00,
2014-10-01 08:35:00,47.5,47.0,30.02,East,85,0.0,0.0,98,0.00,,,0.00,vanprod-2.5,2014-10-01 12:35:00,
2014-10-01 08:40:00,47.6,47.1,30.02,East,85,0.0,0.0,98,0.00,,,0.00,vanprod-2.5,2014-10-01 12:40:00,
2014-10-01 08:45:00,47.9,47.4,30.02,East,81,0.0,0.0,98,0.00,,,0.00,vanprod-2.5,2014-10-01 12:45:00,
2014-10-01 08:50:00,48.1,47.6,30.03,East,84,0.0,0.0,98,0.00,,,0.00,vanprod-2.5,2014-10-01 12:50:00,
2014-10-01 08:55:00,48.2,47.7,30.03,NNE,25,0.0,0.0,98,0.00,,,0.00,vanprod-2.5,2014-10-01 12:55:00,
2014-10-01 09:00:00,48.5,48.0,30.03,ENE,72,0.0,0.0,98,0.00,,,0.00,vanprod-2.5,2014-10-01 13:00:00,
2014-10-01 09:05:00,48.8,48.3,30.03,East,86,0.0,0.0,98,0.00,,,0.00,vanprod-2.5,2014-10-01 13:05:00,
2014-10-01 09:10:00,49.0,48.5,30.03,ENE,76,0.0,0.0,98,0.00,,,0.00,vanprod-2.5,2014-10-01 13:10:00,
2014-10-01 09:15:00,49.5,49.0,30.03,East,93,0.0,0.0,98,0.00,,,0.00,vanprod-2.5,2014-10-01 13:15:00,
2014-10-01 09:20:00,49.7,49.2,30.04,ENE,72,0.0,0.0,98,0.00,,,0.00,vanprod-2.5,2014-10-01 13:20:00,
2014-10-01 09:25:00,49.8,49.3,30.04,ENE,73,0.0,0.0,98,0.00,,,0.00,vanprod-2.5,2014-10-01 13:25:00,
2014-10-01 09:30:00,49.9,49.4,30.04,ENE,63,0.0,1.0,98,0.00,,,0.00,vanprod-2.5,2014-10-01 13:30:00,
2014-10-01 09:35:00,50.1,49.6,30.04,ENE,75,0.0,0.0,98,0.00,,,0.00,vanprod-2.5,2014-10-01 13:35:00,
2014-10-01 09:40:00,50.2,49.7,30.04,ENE,62,1.0,1.0,98,0.00,,,0.00,vanprod-2.5,2014-10-01 13:40:00,
2014-10-01 09:44:00,50.2,49.7,30.04,ENE,65,0.0,0.0,98,0.00,,,0.00,vanprod-2.5,2014-10-01 13:44:00,
2014-10-01 09:49:00,50.5,50.0,30.04,ESE,105,0.0,0.0,98,0.00,,,0.00,vanprod-2.5,2014-10-01 13:49:00,
2014-10-01 09:54:00,50.8,50.3,30.04,ESE,104,0.0,0.0,98,0.00,,,0.00,vanprod-2.5,2014-10-01 13:54:00,
2014-10-01 09:59:00,50.9,50.4,30.05,ESE,108,0.0,0.0,98,0.00,,,0.00,vanprod-2.5,2014-10-01 13:59:00,
2014-10-01 10:04:00,50.9,50.4,30.04,ENE,68,0.0,0.0,98,0.00,,,0.00,vanprod-2.5,2014-10-01 14:04:00,
2014-10-01 10:09:00,51.3,50.8,30.05,ENE,68,0.0,0.0,98,0.00,,,0.00,vanprod-2.5,2014-10-01 14:09:00,
2014-10-01 10:11:00,51.3,50.8,30.05,ENE,68,0.0,0.0,98,0.00,,,0.00,vanprod-2.5,2014-10-01 14:11:00,
2014-10-01 10:16:00,51.2,50.7,30.05,ENE,69,0.0,0.0,98,0.00,,,0.00,vanprod-2.5,2014-10-01 14:16:00,
2014-10-01 10:21:00,51.1,50.6,30.05,ENE,66,0.0,3.0,98,0.00,,,0.00,vanprod-2.5,2014-10-01 14:21:00,
2014-10-01 10:26:00,50.8,50.3,30.05,ENE,68,1.0,3.0,98,0.00,,,0.00,vanprod-2.5,2014-10-01 14:26:00,
2014-10-01 10:31:00,50.6,50.1,30.05,East,85,0.0,1.0,98,0.00,,,0.00,vanprod-2.5,2014-10-01 14:31:00,
2014-10-01 10:36:00,51.1,50.6,30.05,ENE,75,0.0,1.0,98,0.00,,,0.00,vanprod-2.5,2014-10-01 14:36:00,
2014-10-01 10:41:00,51.3,50.8,30.05,ENE,68,0.0,1.0,98,0.00,,,0.00,vanprod-2.5,2014-10-01 14:41:00,
2014-10-01 10:46:00,51.2,50.7,30.05,ENE,68,0.0,1.0,98,0.00,,,0.00,vanprod-2.5,2014-10-01 14:46:00,
2014-10-01 10:51:00,51.1,50.6,30.05,ENE,73,1.0,3.0,98,0.00,,,0.00,vanprod-2.5,2014-10-01 14:51:00,
2014-10-01 10:56:00,51.3,50.8,30.05,ENE,71,1.0,3.0,98,0.00,,,0.00,vanprod-2.5,2014-10-01 14:56:00,
2014-10-01 11:01:00,51.7,51.2,30.05,East,84,0.0,2.0,98,0.00,,,0.00,vanprod-2.5,2014-10-01 15:01:00,
2014-10-01 11:06:00,52.1,51.6,30.05,North,350,0.0,3.0,98,0.00,,,0.00,vanprod-2.5,2014-10-01 15:06:00,
2014-10-01 11:11:00,51.8,51.3,30.05,ENE,76,1.0,3.0,98,0.00,,,0.00,vanprod-2.5,2014-10-01 15:11:00,
2014-10-01 11:16:00,52.0,51.5,30.05,East,88,0.0,1.0,98,0.00,,,0.00,vanprod-2.5,2014-10-01 15:16:00,
2014-10-01 11:21:00,52.1,51.6,30.05,ENE,60,0.0,0.0,98,0.00,,,0.00,vanprod-2.5,2014-10-01 15:21:00,
2014-10-01 11:26:00,52.1,51.6,30.05,East,80,0.0,0.0,98,0.00,,,0.00,vanprod-2.5,2014-10-01 15:26:00,
2014-10-01 11:31:00,52.2,51.7,30.05,ENE,76,3.0,5.0,98,0.00,,,0.00,vanprod-2.5,2014-10-01 15:31:00,
2014-10-01 11:36:00,52.2,51.7,30.05,East,85,0.0,0.0,98,0.00,,,0.00,vanprod-2.5,2014-10-01 15:36:00,
2014-10-01 11:40:00,52.4,51.9,30.05,ENE,64,0.0,1.0,98,0.00,,,0.00,vanprod-2.5,2014-10-01 15:40:00,
2014-10-01 11:45:00,52.6,52.1,30.06,East,84,0.0,0.0,98,0.00,,,0.00,vanprod-2.5,2014-10-01 15:45:00,
2014-10-01 11:50:00,52.8,52.3,30.06,East,81,1.0,0.0,98,0.00,,,0.00,vanprod-2.5,2014-10-01 15:50:00,
2014-10-01 11:55:00,53.0,52.5,30.06,ENE,78,0.0,1.0,98,0.00,,,0.00,vanprod-2.5,2014-10-01 15:55:00,
2014-10-01 12:00:00,53.2,52.7,30.06,NE,53,1.0,2.0,98,0.00,,,0.00,vanprod-2.5,2014-10-01 16:00:00,
2014-10-01 12:05:00,53.3,52.8,30.06,ENE,63,0.0,0.0,98,0.00,,,0.00,vanprod-2.5,2014-10-01 16:05:00,
2014-10-01 12:10:00,53.2,52.7,30.06,ENE,77,0.0,1.0,98,0.00,,,0.00,vanprod-2.5,2014-10-01 16:10:00,
2014-10-01 12:15:00,53.5,53.0,30.06,East,87,0.0,2.0,98,0.00,,,0.00,vanprod-2.5,2014-10-01 16:15:00,
2014-10-01 12:20:00,53.5,53.0,30.06,ENE,70,0.0,0.0,98,0.00,,,0.00,vanprod-2.5,2014-10-01 16:20:00,
2014-10-01 12:25:00,53.8,53.3,30.06,East,81,0.0,1.0,98,0.00,,,0.00,vanprod-2.5,2014-10-01 16:25:00,
2014-10-01 12:30:00,54.0,53.5,30.06,ENE,63,1.0,6.0,98,0.00,,,0.00,vanprod-2.5,2014-10-01 16:30:00,
2014-10-01 12:35:00,53.8,53.3,30.06,East,83,1.0,4.0,98,0.00,,,0.00,vanprod-2.5,2014-10-01 16:35:00,
2014-10-01 12:40:00,53.9,53.4,30.06,ENE,78,1.0,1.0,98,0.00,,,0.00,vanprod-2.5,2014-10-01 16:40:00,
2014-10-01 12:45:00,53.9,53.4,30.06,NNW,329,0.0,0.0,98,0.00,,,0.00,vanprod-2.5,2014-10-01 16:45:00,
2014-10-01 12:50:00,54.0,53.5,30.06,East,83,2.0,3.0,98,0.00,,,0.00,vanprod-2.5,2014-10-01 16:50:00,
2014-10-01 12:55:00,53.8,53.3,30.06,East,83,1.0,4.0,98,0.00,,,0.00,vanprod-2.5,2014-10-01 16:55:00,
2014-10-01 13:00:00,54.1,53.6,30.06,ENE,76,3.0,3.0,98,0.00,,,0.00,vanprod-2.5,2014-10-01 17:00:00,
2014-10-01 13:05:00,54.4,53.8,30.06,East,85,1.0,2.0,98,0.00,,,0.00,vanprod-2.5,2014-10-01 17:05:00,
2014-10-01 13:10:00,54.5,53.9,30.06,East,80,0.0,0.0,98,0.00,,,0.00,vanprod-2.5,2014-10-01 17:10:00,
2014-10-01 13:15:00,54.6,54.0,30.06,ENE,68,0.0,0.0,98,0.00,,,0.00,vanprod-2.5,2014-10-01 17:15:00,
2014-10-01 13:20:00,54.8,54.0,30.06,ENE,71,2.0,2.0,97,0.00,,,0.00,vanprod-2.5,2014-10-01 17:20:00,
2014-10-01 13:25:00,55.3,54.7,30.06,ENE,72,0.0,2.0,98,0.00,,,0.00,vanprod-2.5,2014-10-01 17:25:00,
2014-10-01 13:30:00,55.3,54.5,30.05,ENE,78,3.0,3.0,97,0.00,,,0.00,vanprod-2.5,2014-10-01 17:30:00,
2014-10-01 13:35:00,55.7,54.9,30.05,ENE,73,0.0,0.0,97,0.00,,,0.00,vanprod-2.5,2014-10-01 17:35:00,
2014-10-01 13:39:00,55.9,54.8,30.05,ESE,108,0.0,0.0,96,0.00,,,0.00,vanprod-2.5,2014-10-01 17:39:00,
2014-10-01 13:44:00,56.4,55.3,30.05,ENE,77,2.0,2.0,96,0.00,,,0.00,vanprod-2.5,2014-10-01 17:44:00,
2014-10-01 13:49:00,56.8,55.4,30.05,ESE,120,0.0,0.0,95,0.00,,,0.00,vanprod-2.5,2014-10-01 17:49:00,
2014-10-01 13:54:00,57.5,56.1,30.05,ESE,108,0.0,2.0,95,0.00,,,0.00,vanprod-2.5,2014-10-01 17:54:00,
2014-10-01 13:59:00,57.7,55.7,30.04,East,82,2.0,2.0,93,0.00,,,0.00,vanprod-2.5,2014-10-01 17:59:00,
2014-10-01 14:04:00,58.1,55.8,30.04,ENE,78,1.0,2.0,92,0.00,,,0.00,vanprod-2.5,2014-10-01 18:04:00,
2014-10-01 14:09:00,58.2,55.3,30.04,ENE,71,3.0,3.0,90,0.00,,,0.00,vanprod-2.5,2014-10-01 18:09:00,
2014-10-01 14:14:00,58.0,55.1,30.04,East,81,4.0,4.0,90,0.00,,,0.00,vanprod-2.5,2014-10-01 18:14:00,
2014-10-01 14:19:00,58.2,55.6,30.04,East,82,0.0,0.0,91,0.00,,,0.00,vanprod-2.5,2014-10-01 18:19:00,
2014-10-01 14:24:00,59.4,56.5,30.04,ESE,111,0.0,0.0,90,0.00,,,0.00,vanprod-2.5,2014-10-01 18:24:00,
2014-10-01 14:29:00,59.3,55.8,30.03,ENE,76,4.0,4.0,88,0.00,,,0.00,vanprod-2.5,2014-10-01 18:29:00,
2014-10-01 14:34:00,59.6,56.0,30.03,NNE,12,1.0,0.0,88,0.00,,,0.00,vanprod-2.5,2014-10-01 18:34:00,
2014-10-01 14:39:00,60.2,56.6,30.03,NNE,24,2.0,4.0,88,0.00,,,0.00,vanprod-2.5,2014-10-01 18:39:00,
2014-10-01 14:44:00,60.5,56.6,30.03,ENE,61,0.0,4.0,87,0.00,,,0.00,vanprod-2.5,2014-10-01 18:44:00,
2014-10-01 14:49:00,60.4,56.2,30.03,East,83,3.0,3.0,86,0.00,,,0.00,vanprod-2.5,2014-10-01 18:49:00,
2014-10-01 14:54:00,60.3,55.5,30.03,East,82,1.0,4.0,84,0.00,,,0.00,vanprod-2.5,2014-10-01 18:54:00,
2014-10-01 14:59:00,60.4,54.9,30.03,East,98,1.0,3.0,82,0.00,,,0.00,vanprod-2.5,2014-10-01 18:59:00,
2014-10-01 15:04:00,61.2,56.0,30.03,NE,53,0.0,0.0,83,0.00,,,0.00,vanprod-2.5,2014-10-01 19:04:00,
2014-10-01 15:09:00,62.1,55.9,30.03,ESE,118,0.0,0.0,80,0.00,,,0.00,vanprod-2.5,2014-10-01 19:09:00,
2014-10-01 15:14:00,62.9,56.6,30.02,SE,139,0.0,0.0,80,0.00,,,0.00,vanprod-2.5,2014-10-01 19:14:00,
2014-10-01 15:19:00,63.1,56.8,30.02,SE,132,0.0,0.0,80,0.00,,,0.00,vanprod-2.5,2014-10-01 19:19:00,
2014-10-01 15:24:00,63.6,56.3,30.02,ESE,110,0.0,0.0,77,0.00,,,0.00,vanprod-2.5,2014-10-01 19:24:00,
2014-10-01 15:29:00,63.9,56.6,30.02,ENE,75,2.0,2.0,77,0.00,,,0.00,vanprod-2.5,2014-10-01 19:29:00,
2014-10-01 15:34:00,63.9,57.3,30.02,East,82,0.0,0.0,79,0.00,,,0.00,vanprod-2.5,2014-10-01 19:34:00,
2014-10-01 15:37:00,64.3,57.7,30.02,ESE,115,1.0,2.0,79,0.00,,,0.00,vanprod-2.5,2014-10-01 19:37:00,
2014-10-01 15:42:00,64.7,57.3,30.02,ENE,76,1.0,3.0,77,0.00,,,0.00,vanprod-2.5,2014-10-01 19:42:00,
2014-10-01 15:47:00,64.9,56.0,30.02,ENE,71,1.0,0.0,73,0.00,,,0.00,vanprod-2.5,2014-10-01 19:47:00,
2014-10-01 15:52:00,65.0,56.5,30.02,NW,312,0.0,0.0,74,0.00,,,0.00,vanprod-2.5,2014-10-01 19:52:00,
2014-10-01 15:57:00,64.7,55.9,30.01,ENE,74,0.0,0.0,73,0.00,,,0.00,vanprod-2.5,2014-10-01 19:57:00,
2014-10-01 16:02:00,64.8,55.2,30.01,East,84,2.0,2.0,71,0.00,,,0.00,vanprod-2.5,2014-10-01 20:02:00,
2014-10-01 16:07:00,64.7,54.7,30.01,NNE,24,2.0,2.0,70,0.00,,,0.00,vanprod-2.5,2014-10-01 20:07:00,
2014-10-01 16:12:00,64.7,55.1,30.01,ENE,72,1.0,0.0,71,0.00,,,0.00,vanprod-2.5,2014-10-01 20:12:00,
2014-10-01 16:17:00,64.9,55.7,30.01,East,98,0.0,0.0,72,0.00,,,0.00,vanprod-2.5,2014-10-01 20:17:00,
2014-10-01 16:19:00,65.1,55.9,30.01,ENE,74,0.0,1.0,72,0.00,,,0.00,vanprod-2.5,2014-10-01 20:19:00,
2014-10-01 16:24:00,65.1,54.7,30.01,ESE,119,0.0,0.0,69,0.00,,,0.00,vanprod-2.5,2014-10-01 20:24:00,
2014-10-01 16:29:00,64.9,53.7,30.01,North,358,0.0,3.0,67,0.00,,,0.00,vanprod-2.5,2014-10-01 20:29:00,
2014-10-01 16:34:00,64.9,54.1,30.01,ENE,62,2.0,2.0,68,0.00,,,0.00,vanprod-2.5,2014-10-01 20:34:00,
2014-10-01 16:39:00,65.1,55.1,30.01,ENE,77,0.0,0.0,70,0.00,,,0.00,vanprod-2.5,2014-10-01 20:39:00,
2014-10-01 16:44:00,65.4,55.4,30.01,SSE,163,0.0,0.0,70,0.00,,,0.00,vanprod-2.5,2014-10-01 20:44:00,
2014-10-01 16:49:00,65.7,55.7,30.01,East,94,1.0,1.0,70,0.00,,,0.00,vanprod-2.5,2014-10-01 20:49:00,
2014-10-01 16:54:00,65.7,54.0,30.01,ENE,77,1.0,2.0,66,0.00,,,0.00,vanprod-2.5,2014-10-01 20:54:00,
2014-10-01 16:59:00,65.7,54.5,30.01,SE,125,0.0,1.0,67,0.00,,,0.00,vanprod-2.5,2014-10-01 20:59:00,
2014-10-01 17:04:00,65.9,54.6,30.00,East,84,0.0,2.0,67,0.00,,,0.00,vanprod-2.5,2014-10-01 21:04:00,
2014-10-01 17:09:00,66.0,54.3,30.00,NW,320,0.0,0.0,66,0.00,,,0.00,vanprod-2.5,2014-10-01 21:09:00,
2014-10-01 17:13:00,66.3,54.6,30.00,NW,325,0.0,0.0,66,0.00,,,0.00,vanprod-2.5,2014-10-01 21:13:00,
2014-10-01 17:18:00,66.3,54.2,30.00,ENE,63,0.0,0.0,65,0.00,,,0.00,vanprod-2.5,2014-10-01 21:18:00,
2014-10-01 17:23:00,66.0,54.3,30.00,ENE,63,0.0,0.0,66,0.00,,,0.00,vanprod-2.5,2014-10-01 21:23:00,
2014-10-01 17:28:00,66.1,53.6,30.00,ENE,60,0.0,0.0,64,0.00,,,0.00,vanprod-2.5,2014-10-01 21:28:00,
2014-10-01 17:33:00,66.3,54.2,30.00,NE,53,0.0,0.0,65,0.00,,,0.00,vanprod-2.5,2014-10-01 21:33:00,
2014-10-01 17:36:00,66.4,54.3,30.00,NE,53,0.0,0.0,65,0.00,,,0.00,vanprod-2.5,2014-10-01 21:36:00,
2014-10-01 17:41:00,66.6,54.1,30.00,East,97,0.0,0.0,64,0.00,,,0.00,vanprod-2.5,2014-10-01 21:41:00,
2014-10-01 17:46:00,66.6,54.1,30.00,East,82,0.0,0.0,64,0.00,,,0.00,vanprod-2.5,2014-10-01 21:46:00,
2014-10-01 17:51:00,66.9,54.8,30.00,East,82,0.0,0.0,65,0.00,,,0.00,vanprod-2.5,2014-10-01 21:51:00,
2014-10-01 17:56:00,66.8,53.4,30.00,East,82,0.0,0.0,62,0.00,,,0.00,vanprod-2.5,2014-10-01 21:56:00,
2014-10-01 18:01:00,66.6,53.2,30.00,ENE,78,1.0,1.0,62,0.00,,,0.00,vanprod-2.5,2014-10-01 22:01:00,
2014-10-01 18:06:00,66.2,53.7,30.00,ENE,70,0.0,0.0,64,0.00,,,0.00,vanprod-2.5,2014-10-01 22:06:00,
2014-10-01 18:11:00,65.9,54.2,30.00,ENE,70,0.0,0.0,66,0.00,,,0.00,vanprod-2.5,2014-10-01 22:11:00,
2014-10-01 18:16:00,65.4,54.2,30.00,ENE,70,0.0,0.0,67,0.00,,,0.00,vanprod-2.5,2014-10-01 22:16:00,
2014-10-01 18:21:00,64.8,54.0,30.00,ENE,70,0.0,0.0,68,0.00,,,0.00,vanprod-2.5,2014-10-01 22:21:00,
2014-10-01 18:26:00,64.4,54.4,30.00,ENE,70,0.0,0.0,70,0.00,,,0.00,vanprod-2.5,2014-10-01 22:26:00,
2014-10-01 18:31:00,64.1,53.7,30.00,ENE,70,0.0,0.0,69,0.00,,,0.00,vanprod-2.5,2014-10-01 22:31:00,
2014-10-01 18:36:00,63.7,54.1,30.00,ENE,70,0.0,0.0,71,0.00,,,0.00,vanprod-2.5,2014-10-01 22:36:00,
2014-10-01 18:41:00,63.5,54.3,30.00,ENE,70,0.0,0.0,72,0.00,,,0.00,vanprod-2.5,2014-10-01 22:41:00,
2014-10-01 18:46:00,63.5,54.3,30.00,ENE,70,0.0,0.0,72,0.00,,,0.00,vanprod-2.5,2014-10-01 22:46:00,
2014-10-01 18:51:00,63.3,53.7,30.00,ENE,70,0.0,0.0,71,0.00,,,0.00,vanprod-2.5,2014-10-01 22:51:00,
2014-10-01 18:56:00,62.6,53.8,30.00,ENE,70,0.0,0.0,73,0.00,,,0.00,vanprod-2.5,2014-10-01 22:56:00,
2014-10-01 19:01:00,61.7,53.0,30.00,ENE,70,0.0,0.0,73,0.00,,,0.00,vanprod-2.5,2014-10-01 23:01:00,
2014-10-01 19:06:00,61.2,53.2,30.00,ENE,70,0.0,0.0,75,0.00,,,0.00,vanprod-2.5,2014-10-01 23:06:00,
2014-10-01 19:11:00,60.5,52.9,30.00,ENE,70,0.0,0.0,76,0.00,,,0.00,vanprod-2.5,2014-10-01 23:11:00,
2014-10-01 19:16:00,59.9,52.7,30.00,ENE,70,0.0,0.0,77,0.00,,,0.00,vanprod-2.5,2014-10-01 23:16:00,
2014-10-01 19:21:00,59.3,52.5,30.00,ENE,70,0.0,0.0,78,0.00,,,0.00,vanprod-2.5,2014-10-01 23:21:00,
2014-10-01 19:26:00,58.9,52.1,30.00,ENE,70,0.0,0.0,78,0.00,,,0.00,vanprod-2.5,2014-10-01 23:26:00,
2014-10-01 19:31:00,58.7,51.9,30.00,ENE,70,0.0,0.0,78,0.00,,,0.00,vanprod-2.5,2014-10-01 23:31:00,
2014-10-01 19:34:00,58.6,51.8,30.00,ENE,70,0.0,0.0,78,0.00,,,0.00,vanprod-2.5,2014-10-01 23:34:00,
2014-10-01 19:35:00,58.6,51.8,30.00,ENE,70,0.0,0.0,78,0.00,,,0.00,vanprod-2.5,2014-10-01 23:35:00,
2014-10-01 19:40:00,58.3,51.8,30.01,ENE,70,0.0,0.0,79,0.00,,,0.00,vanprod-2.5,2014-10-01 23:40:00,
2014-10-01 19:45:00,57.9,51.8,30.01,ENE,70,0.0,0.0,80,0.00,,,0.00,vanprod-2.5,2014-10-01 23:45:00,
2014-10-01 19:50:00,57.7,51.6,30.01,ENE,70,0.0,0.0,80,0.00,,,0.00,vanprod-2.5,2014-10-01 23:50:00,
2014-10-01 19:55:00,57.8,51.7,30.01,ENE,70,0.0,0.0,80,0.00,,,0.00,vanprod-2.5,2014-10-01 23:55:00,
2014-10-01 20:00:00,57.9,51.8,30.01,ENE,70,0.0,0.0,80,0.00,,,0.00,vanprod-2.5,2014-10-02 00:00:00,
2014-10-01 20:05:00,57.8,51.7,30.00,ENE,70,0.0,0.0,80,0.00,,,0.00,vanprod-2.5,2014-10-02 00:05:00,
2014-10-01 20:10:00,58.1,52.0,30.00,ENE,70,0.0,0.0,80,0.00,,,0.00,vanprod-2.5,2014-10-02 00:10:00,
2014-10-01 20:15:00,58.2,52.1,30.01,ENE,70,0.0,0.0,80,0.00,,,0.00,vanprod-2.5,2014-10-02 00:15:00,
2014-10-01 20:20:00,58.0,52.2,30.01,ENE,70,0.0,0.0,81,0.00,,,0.00,vanprod-2.5,2014-10-02 00:20:00,
2014-10-01 20:25:00,57.7,52.3,30.01,ENE,70,0.0,0.0,82,0.00,,,0.00,vanprod-2.5,2014-10-02 00:25:00,
2014-10-01 20:30:00,57.5,52.4,30.01,ENE,70,0.0,0.0,83,0.00,,,0.00,vanprod-2.5,2014-10-02 00:30:00,
2014-10-01 20:35:00,57.6,52.5,30.01,ENE,70,0.0,0.0,83,0.00,,,0.00,vanprod-2.5,2014-10-02 00:35:00,
2014-10-01 20:40:00,57.6,52.5,30.02,ENE,70,0.0,0.0,83,0.00,,,0.00,vanprod-2.5,2014-10-02 00:40:00,
2014-10-01 20:45:00,57.9,52.8,30.02,ENE,70,0.0,0.0,83,0.00,,,0.00,vanprod-2.5,2014-10-02 00:45:00,
2014-10-01 20:50:00,58.2,52.7,30.02,ENE,70,0.0,0.0,82,0.00,,,0.00,vanprod-2.5,2014-10-02 00:50:00,
2014-10-01 20:55:00,58.1,52.6,30.02,ENE,70,0.0,0.0,82,0.00,,,0.00,vanprod-2.5,2014-10-02 00:55:00,
2014-10-01 21:00:00,57.8,52.7,30.02,ENE,70,0.0,0.0,83,0.00,,,0.00,vanprod-2.5,2014-10-02 01:00:00,
2014-10-01 21:05:00,57.5,52.4,30.02,ENE,70,0.0,0.0,83,0.00,,,0.00,vanprod-2.5,2014-10-02 01:05:00,
2014-10-01 21:10:00,57.3,52.2,30.02,ENE,70,0.0,0.0,83,0.00,,,0.00,vanprod-2.5,2014-10-02 01:10:00,
2014-10-01 21:15:00,56.9,52.1,30.02,ENE,70,0.0,0.0,84,0.00,,,0.00,vanprod-2.5,2014-10-02 01:15:00,
2014-10-01 21:20:00,56.7,52.6,30.02,ENE,70,0.0,0.0,86,0.00,,,0.00,vanprod-2.5,2014-10-02 01:20:00,
2014-10-01 21:25:00,56.9,52.4,30.02,ENE,70,0.0,0.0,85,0.00,,,0.00,vanprod-2.5,2014-10-02 01:25:00,
2014-10-01 21:30:00,57.2,52.7,30.02,ENE,74,0.0,0.0,85,0.00,,,0.00,vanprod-2.5,2014-10-02 01:30:00,
2014-10-01 21:34:00,57.8,53.0,30.02,East,80,0.0,0.0,84,0.00,,,0.00,vanprod-2.5,2014-10-02 01:34:00,
2014-10-01 21:39:00,58.8,53.0,30.02,East,86,1.0,2.0,81,0.00,,,0.00,vanprod-2.5,2014-10-02 01:39:00,
2014-10-01 21:44:00,59.5,52.3,30.02,East,80,1.0,1.0,77,0.00,,,0.00,vanprod-2.5,2014-10-02 01:44:00,
2014-10-01 21:49:00,59.9,52.3,30.02,East,80,0.0,1.0,76,0.00,,,0.00,vanprod-2.5,2014-10-02 01:49:00,
2014-10-01 21:54:00,59.7,52.5,30.02,ENE,77,1.0,0.0,77,0.00,,,0.00,vanprod-2.5,2014-10-02 01:54:00,
2014-10-01 21:59:00,59.4,52.5,30.02,East,82,1.0,0.0,78,0.00,,,0.00,vanprod-2.5,2014-10-02 01:59:00,
2014-10-01 22:04:00,59.0,52.2,30.02,East,82,0.0,0.0,78,0.00,,,0.00,vanprod-2.5,2014-10-02 02:04:00,
2014-10-01 22:09:00,58.6,51.8,30.02,East,82,0.0,0.0,78,0.00,,,0.00,vanprod-2.5,2014-10-02 02:09:00,
2014-10-01 22:14:00,58.6,51.8,30.02,ENE,78,0.0,1.0,78,0.00,,,0.00,vanprod-2.5,2014-10-02 02:14:00,
2014-10-01 22:19:00,59.1,51.6,30.02,East,79,0.0,0.0,76,0.00,,,0.00,vanprod-2.5,2014-10-02 02:19:00,
2014-10-01 22:24:00,59.5,51.9,30.02,East,82,0.0,0.0,76,0.00,,,0.00,vanprod-2.5,2014-10-02 02:24:00,
2014-10-01 22:29:00,59.6,51.3,30.02,ENE,71,1.0,1.0,74,0.00,,,0.00,vanprod-2.5,2014-10-02 02:29:00,
2014-10-01 22:34:00,59.6,51.3,30.02,ENE,68,0.0,2.0,74,0.00,,,0.00,vanprod-2.5,2014-10-02 02:34:00,